www.pogodaiklimat.ru

Погода и климат >> Архив погоды >> Индия >> Kakinada


ПОГОДА в Kakinada

  • Прогноз погоды в Kakinada
  • Монитор погоды в Kakinada
  • Климат города

АРХИВ ПОГОДЫ в Kakinada

Время (UTC), дата Ветер
(напр.,м/с)
 
Видим.   Явления Облачность Т
(С)
Тd
(С)
f
(%)
Тe
(С)
Тes
(С)
Комфортность P
(гПа)
Po
(гПа)
Тmin
(С)
Tmax
(С)
R
(мм)
R24
(мм)
S
(см)
21 13.06 штиль 0 4000 м 6/3 600 м
[Sc Ci sp]
+29.2 +24.9 78 +42 +42 опасность
перегрева
1001.0 1000.1
00 14.06 штиль 0 4000 м 4/3 600 м
[Sc Ci sp]
+28.6 +25.2 82 +42 +42 опасность
перегрева
1001.7 1000.8
03 14.06 нст 1 10 км 6/3 600 м
[Sc Ac trans Ci sp]
+30.8 +26.9 80 +48 +54 опасность
перегрева
1002.7 1001.8 +28.0 +35.3
06 14.06 З 2 10 км 5/4 600 м
[Cu Sc Ac trans]
+35.4 +25.3 56 +49 +61 опасность
перегрева
1001.7 1000.8
09 14.06 ЮЗ 3 10 км 3/1 600 м
[Sc Ci fib]
+38.0 +24.5 46 +50 +61 опасность
перегрева
1000.2 999.3
12 14.06 З 2 10 км 1/1 600 м
[Sc]
+36.4 +24.6 51 +49 +50 опасность
перегрева
1000.2 999.3 +38.2
15 14.06 штиль 0 4000 м 3/1 600 м
[Sc Ci fib]
+32.8 +25.8 67 +48 +48 опасность
перегрева
1001.9 1001.0
18 14.06 штиль 0 10 км 3/1 600 м
[Sc Ac trans]
+29.8 +25.0 75 +43 +43 опасность
перегрева
1002.9 1002.0
21 14.06 штиль 0 4000 м 3/1 600 м
[Sc Ac trans]
+29.2 +24.9 78 +42 +42 опасность
перегрева
1001.6 1000.7
00 15.06 штиль 0 4000 м 5/1 600 м
[Sc Ac trans Ci fib]
+28.2 +26.2 89 +43 +43 опасность
перегрева
1002.2 1001.3
03 15.06 штиль 0 10 км 4/1 600 м
[Sc Ci fib]
+31.4 +27.0 78 +49 +60 опасность
перегрева
1003.2 1002.3 +28.2 +38.2
06 15.06 З 3 10 км 4/3 600 м
[Sc Ac trans]
+36.6 +26.1 55 +52 +65 опасность
перегрева
1002.8 1001.9
09 15.06 З 2 10 км 3/3 600 м
[Sc]
+39.4 +26.2 48 +55 +65 опасность
перегрева
1001.2 1000.3
12 15.06 З 2 10 км 4/3 600 м
[Cu Sc Ac trans]
+37.6 +27.2 56 +56 +57 опасность
перегрева
1001.0 1000.1 +39.8
15 15.06 ЮЗ 2 4000 м 4/3 600 м
[Cu Sc Ac trans]
+33.6 +26.7 67 +51 +51 опасность
перегрева
1002.8 1001.9
18 15.06 штиль 0 4000 м 4/3 600 м
[Cu Sc Ci sp]
+30.8 +26.3 77 +47 +47 опасность
перегрева
1003.7 1002.8
21 15.06 штиль 0 4000 м 5/3 600 м
[Cu Sc Ci sp]
+30.2 +26.3 80 +46 +46 опасность
перегрева
1002.9 1002.0
00 16.06 штиль 0 4000 м 4/3 600 м
[Sc Ac trans]
+29.4 +26.6 85 +45 +45 опасность
перегрева
1004.0 1003.1
03 16.06 ЮЗ 2 10 км 3/3 600 м
[Sc]
+30.8 +25.1 72 +45 +51 опасность
перегрева
1004.9 1004.0 +28.7 +39.8
06 16.06 З 2 10 км 6/1 600 м
[Sc Ac trans Ci fib]
+36.4 +24.9 52 +50 +65 опасность
перегрева
1004.3 1003.4
09 16.06 З 2 10 км 3/0
[Ci fib]
+40.0 +23.6 39 +50 +65 опасность
перегрева
1001.9 1001.0
12 16.06 З 2 10 км 4/1 600 м
[Sc Ci fib]
+38.0 +23.8 44 +49 +50 опасность
перегрева
1001.2 1000.3 +40.1
15 16.06 штиль 0 10 км 3/1 600 м
[Sc Ci fib]
+33.6 +24.2 58 +46 +46 опасность
перегрева
1003.3 1002.4
18 16.06 штиль 0 4000 м 3/1 600 м
[Sc Ci fib]
+31.4 +24.6 67 +44 +44 опасность
перегрева
1004.5 1003.6
21 16.06 штиль 0 4000 м 1/1 600 м
[Sc]
+30.2 +25.1 74 +44 +44 опасность
перегрева
1003.8 1002.9
00 17.06 штиль 0 4000 м 5/1 600 м
[Sc Ac trans Ci fib]
+29.4 +26.9 86 +46 +46 опасность
перегрева
1003.9 1003.0
03 17.06 штиль 0 10 км 4/1 600 м
[Sc Ci fib]
+31.6 +27.2 78 +50 +61 опасность
перегрева
1004.7 1003.8 +29.2 +40.1
06 17.06 З 3 10 км 3/3 600 м
[Sc]
+38.0 +25.2 48 +51 +64 опасность
перегрева
1003.5 1002.6
09 17.06 З 3 10 км 3/3 600 м
[Sc]
+40.4 +25.8 44 +55 +64 опасность
перегрева
1001.5 1000.6
12 17.06 З 2 10 км 4/3 600 м
[Sc Ac trans]
+38.6 +23.9 43 +49 +50 опасность
перегрева
1001.0 1000.1 +40.7
15 17.06 штиль 0 4000 м 4/1 600 м
[Sc Ac trans]
+34.6 +24.4 56 +47 +47 опасность
перегрева
1002.8 1001.9
18 17.06 штиль 0 4000 м 4/1 600 м
[Sc Ci sp]
+32.6 +25.0 64 +46 +46 опасность
перегрева
1003.7 1002.8
21 17.06 штиль 0 4000 м 3/3 600 м
[Sc]
+31.8 +25.3 69 +46 +46 опасность
перегрева
1002.3 1001.4
00 18.06 штиль 0 4000 м 3/3 600 м
[Sc]
+30.4 +25.6 76 +45 +45 опасность
перегрева
1002.9 1002.0
03 18.06 З 2 10 км 3/3 600 м
[Sc]
+32.6 +23.1 57 +43 +49 опасность
перегрева
1003.6 1002.7 +29.5 +40.7
06 18.06 З 2 10 км 1/0
[Ci fib]
+37.8 +25.3 49 +51 +72 опасность
перегрева
1003.3 1002.4
09 18.06 З 3 10 км 4/1 600 м
[Sc Ci fib]
+40.0 +21.4 34 +47 +57 опасность
перегрева
1001.4 1000.5
12 18.06 З 2 10 км 6/1 600 м
[Sc Ac trans Ci fib]
+37.8 +21.8 40 +46 +47 опасность
перегрева
1000.3 999.4 +40.2
15 18.06 штиль 0 4000 м 5/1 600 м
[Sc Ac trans Ci fib]
+33.0 +24.8 62 +46 +46 опасность
перегрева
1002.6 1001.7
18 18.06 штиль 0 4000 м 4/1 600 м
[Sc Ci fib]
+31.0 +24.4 68 +43 +43 опасность
перегрева
1003.1 1002.2
21 18.06 штиль 0 4000 м 5/1 600 м
[Sc Ac trans Ci fib]
+30.2 +24.8 73 +43 +43 опасность
перегрева
1002.7 1001.8
00 19.06 З 2 4000 м 8/3 600 м
[Sc Ac trans Ci fib]
+29.4 +26.6 85 +45 +45 опасность
перегрева
1002.9 1002.0
03 19.06 З 2 10 км 5/1 600 м
[Sc Ac trans Ci fib]
+32.6 +23.4 58 +43 +50 опасность
перегрева
1003.5 1002.6 +29.4 +40.2
06 19.06 З 3 10 км 4/1 600 м
[Sc Ac trans Ci sp]
+37.0 +25.6 52 +51 +66 опасность
перегрева
1002.3 1001.4
09 19.06 З 3 10 км 4/1 600 м
[Cu Sc Ac trans]
+39.0 +26.0 48 +54 +64 опасность
перегрева
1000.8 999.9
12 19.06 З 2 10 км 4/3 600 м
[Cu Sc Ci sp]
+37.4 +24.8 49 +50 +51 опасность
перегрева
999.9 999.0 +39.8
15 19.06 Ю 2 4000 м 4/3 600 м
[Cu Sc Ac trans]
+31.8 +25.0 67 +45 +45 опасность
перегрева
1002.1 1001.2
18 19.06 нст 1 4000 м 5/3 600 м
[Cb calv Ci sp]
+31.0 +26.6 77 +47 +47 опасность
перегрева
1003.1 1002.3
21 19.06 нст 1 4000 м 6/3 600 м
[Cu Sc Ac trans Ci sp]
+30.2 +26.6 81 +47 +47 опасность
перегрева
1002.3 1001.4
00 20.06 штиль 0 4000 м 4/3 600 м
[Sc Ci sp]
+30.0 +27.2 85 +48 +48 опасность
перегрева
1002.9 1002.0
03 20.06 штиль 0 10 км 6/3 600 м
[Cu Sc Ac trans]
+31.8 +27.4 78 +51 +57 опасность
перегрева
1004.3 1003.4 +29.2 +39.8
06 20.06 З 1 10 км 5/3 600 м
[Sc diur, vesp Ac trans Ci fib]
+36.4 +26.2 56 +52 +67 опасность
перегрева
1003.2 1002.3
09 20.06 ЮЗ 2 10 км 6/3 600 м
[Sc diur, vesp Ac trans Ci fib]
+39.2 +22.9 39 +48 +57 опасность
перегрева
1000.6 999.7
12 20.06 Ю 1 10 км 8/3 600 м
[Sc Ac trans Ci sp]
+36.8 +25.0 51 +50 +51 опасность
перегрева
999.8 998.9 +39.7
15 20.06 Ю 1 4000 м 6/1 600 м
[Sc Ac trans Ci fib]
+31.8 +25.0 67 +45 +45 опасность
перегрева
1002.8 1001.9

 

Местоположение метеостанции Kakinada (Andhra Pradesh, Индия): широта 16.95 долгота 82.23 высота над уровнем моря 8 м.

В архиве по умолчанию представлена погода в Kakinada за последнюю неделю. Архивные данные за месяц целиком и за предыдущие месяцы, начиная с января 2011 года, Вы можете получить, выбрав интересующий диапазон дат из раскрывающегося списка и нажав кнопку "Ввод!".


*Определитесь, кто Вы:
робот инопланетянин человек

Внимание! Время в таблицах - всемирное. Для получения местного времени необходимо прибавить поправку, которая в Kakinada равна 5.5 ч.

Смотрите также архив погоды в соседних городах и на ближайших метеорологических станциях:

Погода в Tuni (Andhra Pradesh, Индия) (56 км)
Погода в Narsapur (Andhra Pradesh, Индия) (81 км)
Погода в Visakhapatnam (Andhra Pradesh, Индия) (136 км)
Погода в Visakhapatnam Walt (Andhra Pradesh, Индия) (141 км)
Погода в Machilipatnam (Andhra Pradesh, Индия) (142 км)
Погода в Gannavaram (Andhra Pradesh, Индия) (159 км)
Погода в Bhadrachalam (Telangana, Индия) (164 км)
Погода в Nandigama (Andhra Pradesh, Индия) (208 км)
Погода в Koraput (Orissa, Индия) (214 км)
Погода в Bapatla (Andhra Pradesh, Индия) (221 км)

Пояснения к столбцам:

Ветер - указаны скорость ветра в м/с - средняя за 10 мин, порывы в срок и между сроками (в фигурных скобках) и направление, откуда дует ветер: С - северный, СВ - северо-восточный, В - восточный, ЮВ - юго-восточный, Ю - южный, ЮЗ - юго-западный, З - западный, СЗ - северо-западный.
Видимость - горизонтальная дальность видимости в метрах или километрах. При видимости от 1 до 10 км при отсутствии осадков обычно наблюдается дымка, при ухудшении видимости до 1 км и менее - туман. В сухую погоду видимость может ухудшаться дымом, пылью или мглою.
Явления - указаны атмосферные явления, наблюдавшиеся в срок или в последний час перед сроком; фигурными скобками обозначены явления, наблюдавшиеся между сроками (за 1-3 часа до срока); квадратными скобками обозначены град или гололедные отложения с указанием их диаметра в мм.
Облачность - указаны через наклонную черту общая и нижняя облачность в баллах и высота нижней границы облаков в метрах; квадратными скобками обозначены формы облаков: Ci - перистые, Cs - перисто-слоистые, Cc - перисто-кучевые, Ac - высококучевые, As - высокослоистые, Sc - слоисто-кучевые, Ns - слоисто-дождевые, Cu - кучевые, Cb - кучево-дождевые. Подробнее классификацию облаков см. в Атласе облаков (PDF).
T - Температура воздуха - температура, измеренная на высоте 2 м над землей.
Td - Температура точки росы - температура, при понижении до которой содержащийся в воздухе водяной пар достигнет насыщения.
f - Относительная влажность воздуха - влажноcть воздуха, измеренная на высоте 2 м над землей.
Te - Эффективная температура - температура, которую ощущает одетый по сезону человек в тени. Характеристика душности погоды. При расчете учитывается влияние влажности воздуха и скорости ветра на теплоощущения человека.
Tes - Эффективная температура на солнце - температура, которую ощущает человек, с поправкой на солнечный нагрев. Характеристика знойности погоды. Зависит от высоты солнца над горизонтом, облачности и скорости ветра. Ночью, в пасмурную погоду, а также при ветре 12 м/с и более поправка равна нулю.
P - Атмосферное давление - приведенное к уровню моря атмосферное давление.
Po - Атмосферное давление - измеренное на уровне метеостанции атмосферное давление.
Tmin - Минимальная температура - минимум температуры воздуха на высоте 2 м над землей.
Tmax - Максимальная температура - максимум температуры воздуха на высоте 2 м над землей.
R - Количество осадков - Количество выпавших осадков за период времени, мм. При наведении курсора мыши на число - период времени, за который выпало указанное количество осадков.
R24 - Количество осадков - Количество выпавших осадков за 24 часа, мм.
S - Снежный покров - Высота снежного покрова, см. При наведении курсора мыши на число - состояние снежного покрова и степень покрытия местности в баллах.